Flag for Cuba Weather past 2 weeks in Santa Clara, Cuba

Now
72 °F

Mild.


Feels Like: 67 °F
Forecast: 72 / 86 °F
Wind: 3 mph from East

Location: Cienfuegos - Las Villas

Current Time: Oct 21, 2014 at 9:11:21 AM

Latest Report: Oct 21, 2014 at 7:55 AM


Visibility: N/A

Pressure: 29.92 "Hg

Humidity: 94%

Dew point: 70 °F

Location of Santa ClaraLocation

Historic Weather in Santa Clara — Graph

°F

Santa Clara temperature yesterday

Maximum temperature yesterday: 91 °F (at 1:50 PM)
Minimum temperature yesterday: 72 °F (at 3:00 AM)
Average temperature yesterday: 78 °F

Past Weeks' High & Low Weather Summary

 TemperatureHumidityPressure
High95 °F (Oct 7, 2:50 PM)100% (Oct 6, 7:50 AM)30.07 "Hg (Oct 6, 7:50 AM)
Low72 °F (Oct 8, 7:51 AM)41% (Oct 7, 2:50 PM)29.86 "Hg (Oct 10, 3:50 PM)
Average83 °F74%29.96 "Hg
* Reported Oct 6 7:50 AM — Oct 21 7:55 AM, Santa Clara, Weather by CustomWeather, © 2014

Note: Actual official high and low records may vary slightly from our data, if they occured in-between our weather recording intervals... More about our weather records

Advertising

Santa Clara weather history for previous 24 hours

 ConditionsComfort  
Time TempWeatherWind HumidityBarometerVisibility
7:55 AM
Oct 21
72 °FMild.3 mph94%29.92 "HgN/A
6:55 AM72 °FMild.3 mph94%29.92 "HgN/A
5:55 AM72 °FMild.3 mph94%29.92 "HgN/A
4:55 AM72 °FMild.2 mph100%29.89 "HgN/A
3:55 AM72 °FMild.3 mph100%29.89 "HgN/A
2:55 AM72 °FMild.5 mph100%29.89 "HgN/A
1:55 AM73 °FMild.6 mph94%29.92 "HgN/A
12:55 AM73 °FMild.5 mph94%29.95 "HgN/A
11:55 PM
Oct 20
73 °FMild.7 mph100%29.95 "HgN/A
10:55 PM75 °FMild.5 mph94%29.98 "HgN/A
9:55 PM77 °FWarm.5 mph89%29.98 "HgN/A
8:55 PM75 °FMild.5 mph94%29.95 "HgN/A
7:55 PM75 °FMild.3 mph94%29.92 "HgN/A
6:55 PM77 °FWarm.5 mph94%29.92 "HgN/A
5:55 PM81 °FWarm.3 mph89%29.89 "HgN/A
4:55 PM81 °FWarm.6 mph89%29.89 "HgN/A
3:50 PM79 °FPartly sunny.9 mph84%29.92 "HgN/A
2:50 PM88 °FPartly sunny.2 mph55%29.92 "HgN/A
1:50 PM91 °FScattered clouds.3 mph56%29.95 "HgN/A
12:50 PM88 °FScattered clouds.3 mph59%29.98 "HgN/A
11:50 AM86 °FPassing clouds.2 mph62%30.01 "HgN/A
10:51 AM84 °FPassing clouds.2 mph66%30.01 "HgN/A
9:50 AM82 °FPassing clouds.3 mph74%30.01 "HgN/A
Weather by CustomWeather, © 2014

See weather overviewHow to use our weather pages